Time,TemperatureF,DewpointF,PressureIn,WindDirection,WindDirectionDegrees,WindSpeedMPH,WindSpeedGustMPH,Humidity,HourlyPrecipIn,Conditions,Clouds,dailyrainin,SoftwareType,DateUTC
2013-05-17 00:04:00,66.8,63.5,29.77,SE,138,1.0,1.0,89,0.00,,,0.00,Wunderground v.1.15,2013-05-17 05:04:00,
2013-05-17 00:10:00,66.8,63.5,29.77,SE,138,1.0,1.0,89,0.00,,,0.00,Wunderground v.1.15,2013-05-17 05:10:00,
2013-05-17 00:24:00,66.6,63.3,29.77,SE,140,1.0,1.0,89,0.00,,,0.00,Wunderground v.1.15,2013-05-17 05:24:00,
2013-05-17 00:30:00,66.6,63.3,29.77,SE,134,1.0,3.0,89,0.00,,,0.00,Wunderground v.1.15,2013-05-17 05:30:00,
2013-05-17 00:44:00,66.4,63.1,29.77,SE,136,1.0,1.0,89,0.00,,,0.00,Wunderground v.1.15,2013-05-17 05:44:00,
2013-05-17 00:50:00,66.3,63.3,29.77,SE,132,1.0,1.0,90,0.00,,,0.00,Wunderground v.1.15,2013-05-17 05:50:00,
2013-05-17 01:04:00,66.1,63.1,29.77,SE,132,1.0,1.0,90,0.00,,,0.00,Wunderground v.1.15,2013-05-17 06:04:00,
2013-05-17 01:10:00,66.0,63.0,29.77,SE,132,1.0,1.0,90,0.00,,,0.00,Wunderground v.1.15,2013-05-17 06:10:00,
2013-05-17 01:24:00,65.6,62.6,29.78,SE,132,1.0,2.0,90,0.00,,,0.00,Wunderground v.1.15,2013-05-17 06:24:00,
2013-05-17 01:30:00,65.6,62.9,29.78,SE,133,0.0,2.0,91,0.00,,,0.00,Wunderground v.1.15,2013-05-17 06:30:00,
2013-05-17 01:44:00,65.3,62.6,29.78,SE,133,0.0,0.0,91,0.00,,,0.00,Wunderground v.1.15,2013-05-17 06:44:00,
2013-05-17 01:50:00,65.1,62.4,29.78,SE,133,0.0,1.0,91,0.00,,,0.00,Wunderground v.1.15,2013-05-17 06:50:00,
2013-05-17 02:04:00,64.8,62.1,29.78,SE,134,1.0,1.0,91,0.00,,,0.00,Wunderground v.1.15,2013-05-17 07:04:00,
2013-05-17 02:10:00,64.7,62.0,29.78,SE,134,0.0,1.0,91,0.00,,,0.00,Wunderground v.1.15,2013-05-17 07:10:00,
2013-05-17 02:24:00,64.3,61.9,29.78,SE,133,0.0,0.0,92,0.00,,,0.00,Wunderground v.1.15,2013-05-17 07:24:00,
2013-05-17 02:30:00,64.2,61.8,29.78,SE,134,0.0,0.0,92,0.00,,,0.00,Wunderground v.1.15,2013-05-17 07:30:00,
2013-05-17 02:44:00,63.9,61.5,29.78,SE,134,0.0,0.0,92,0.00,,,0.00,Wunderground v.1.15,2013-05-17 07:44:00,
2013-05-17 02:50:00,63.8,61.7,29.78,SE,133,0.0,0.0,93,0.00,,,0.00,Wunderground v.1.15,2013-05-17 07:50:00,
2013-05-17 03:04:00,63.6,61.5,29.78,SE,133,0.0,0.0,93,0.00,,,0.00,Wunderground v.1.15,2013-05-17 08:04:00,
2013-05-17 03:10:00,63.4,61.3,29.78,SE,134,0.0,0.0,93,0.00,,,0.00,Wunderground v.1.15,2013-05-17 08:10:00,
2013-05-17 03:24:00,63.2,61.1,29.78,SE,133,0.0,0.0,93,0.00,,,0.00,Wunderground v.1.15,2013-05-17 08:24:00,
2013-05-17 03:30:00,63.1,61.0,29.79,SE,134,0.0,0.0,93,0.00,,,0.00,Wunderground v.1.15,2013-05-17 08:30:00,
2013-05-17 03:44:00,63.1,61.0,29.78,SE,133,0.0,0.0,93,0.00,,,0.00,Wunderground v.1.15,2013-05-17 08:44:00,
2013-05-17 03:50:00,62.9,61.1,29.78,SE,134,0.0,0.0,94,0.00,,,0.00,Wunderground v.1.15,2013-05-17 08:50:00,
2013-05-17 04:04:00,62.7,60.9,29.78,SE,133,0.0,0.0,94,0.00,,,0.00,Wunderground v.1.15,2013-05-17 09:04:00,
2013-05-17 04:10:00,62.6,60.8,29.78,SE,134,0.0,0.0,94,0.00,,,0.00,Wunderground v.1.15,2013-05-17 09:10:00,
2013-05-17 04:24:00,62.5,60.7,29.78,SE,134,0.0,0.0,94,0.00,,,0.00,Wunderground v.1.15,2013-05-17 09:24:00,
2013-05-17 04:30:00,62.4,60.7,29.78,SE,133,0.0,0.0,94,0.00,,,0.00,Wunderground v.1.15,2013-05-17 09:30:00,
2013-05-17 04:44:00,62.2,60.5,29.78,SE,134,0.0,0.0,94,0.00,,,0.00,Wunderground v.1.15,2013-05-17 09:44:00,
2013-05-17 04:50:00,62.1,60.4,29.78,SE,134,0.0,0.0,94,0.00,,,0.00,Wunderground v.1.15,2013-05-17 09:50:00,
2013-05-17 05:04:00,62.0,60.3,29.78,SE,133,0.0,0.0,94,0.00,,,0.00,Wunderground v.1.15,2013-05-17 10:04:00,
2013-05-17 05:10:00,62.0,60.6,29.77,SE,134,0.0,1.0,95,0.00,,,0.00,Wunderground v.1.15,2013-05-17 10:10:00,
2013-05-17 05:24:00,61.9,60.5,29.78,SE,134,0.0,0.0,95,0.00,,,0.00,Wunderground v.1.15,2013-05-17 10:24:00,
2013-05-17 05:30:00,61.7,60.3,29.78,SE,133,0.0,0.0,95,0.00,,,0.00,Wunderground v.1.15,2013-05-17 10:30:00,
2013-05-17 05:44:00,61.5,60.1,29.79,SE,133,0.0,0.0,95,0.00,,,0.00,Wunderground v.1.15,2013-05-17 10:44:00,
2013-05-17 05:50:00,61.6,60.2,29.79,SE,133,0.0,0.0,95,0.00,,,0.00,Wunderground v.1.15,2013-05-17 10:50:00,
2013-05-17 06:04:00,61.6,60.2,29.79,SE,134,0.0,0.0,95,0.00,,,0.01,Wunderground v.1.15,2013-05-17 11:04:00,
2013-05-17 06:10:00,61.7,60.3,29.79,SE,133,0.0,0.0,95,0.00,,,0.01,Wunderground v.1.15,2013-05-17 11:10:00,
2013-05-17 06:24:00,61.6,60.2,29.79,SE,133,0.0,1.0,95,0.00,,,0.01,Wunderground v.1.15,2013-05-17 11:24:00,
2013-05-17 06:30:00,61.7,60.3,29.79,SE,134,0.0,3.0,95,0.00,,,0.01,Wunderground v.1.15,2013-05-17 11:30:00,
2013-05-17 06:44:00,61.8,60.6,29.80,SE,134,0.0,1.0,96,0.00,,,0.01,Wunderground v.1.15,2013-05-17 11:44:00,
2013-05-17 06:50:00,61.8,60.6,29.80,SE,134,0.0,1.0,96,0.00,,,0.01,Wunderground v.1.15,2013-05-17 11:50:00,
2013-05-17 07:04:00,61.9,60.7,29.80,SE,134,0.0,0.0,96,0.00,,,0.01,Wunderground v.1.15,2013-05-17 12:04:00,
2013-05-17 07:10:00,61.9,60.7,29.81,SE,134,0.0,0.0,96,0.00,,,0.01,Wunderground v.1.15,2013-05-17 12:10:00,
2013-05-17 07:24:00,62.0,60.8,29.81,SE,133,0.0,0.0,96,0.00,,,0.01,Wunderground v.1.15,2013-05-17 12:24:00,
2013-05-17 07:30:00,62.2,61.0,29.81,SE,134,0.0,0.0,96,0.00,,,0.01,Wunderground v.1.15,2013-05-17 12:30:00,
2013-05-17 07:44:00,62.4,61.2,29.81,SE,133,1.0,1.0,96,0.00,,,0.01,Wunderground v.1.15,2013-05-17 12:44:00,
2013-05-17 07:50:00,62.6,61.4,29.81,SE,134,1.0,1.0,96,0.00,,,0.01,Wunderground v.1.15,2013-05-17 12:50:00,
2013-05-17 08:04:00,63.3,62.1,29.81,SE,134,1.0,3.0,96,0.00,,,0.01,Wunderground v.1.15,2013-05-17 13:04:00,
2013-05-17 08:10:00,63.6,62.4,29.81,SE,133,1.0,3.0,96,0.00,,,0.01,Wunderground v.1.15,2013-05-17 13:10:00,
2013-05-17 08:24:00,64.0,62.8,29.82,SE,134,0.0,2.0,96,0.00,,,0.01,Wunderground v.1.15,2013-05-17 13:24:00,
2013-05-17 08:30:00,64.5,63.3,29.82,SE,133,0.0,2.0,96,0.00,,,0.01,Wunderground v.1.15,2013-05-17 13:30:00,
2013-05-17 08:44:00,64.9,63.1,29.82,SE,132,1.0,2.0,94,0.00,,,0.01,Wunderground v.1.15,2013-05-17 13:44:00,
2013-05-17 08:50:00,65.5,63.7,29.82,SE,133,1.0,2.0,94,0.00,,,0.01,Wunderground v.1.15,2013-05-17 13:50:00,
2013-05-17 09:04:00,66.9,63.9,29.83,SE,133,1.0,1.0,90,0.00,,,0.01,Wunderground v.1.15,2013-05-17 14:04:00,
2013-05-17 09:10:00,67.9,64.2,29.83,SE,133,1.0,1.0,88,0.00,,,0.01,Wunderground v.1.15,2013-05-17 14:10:00,
2013-05-17 09:24:00,69.4,64.0,29.83,SE,133,1.0,3.0,83,0.00,,,0.01,Wunderground v.1.15,2013-05-17 14:24:00,
2013-05-17 09:30:00,69.5,63.8,29.83,SE,133,1.0,3.0,82,0.00,,,0.01,Wunderground v.1.15,2013-05-17 14:30:00,
2013-05-17 09:44:00,70.4,63.9,29.83,SE,132,1.0,1.0,80,0.00,,,0.01,Wunderground v.1.15,2013-05-17 14:44:00,
2013-05-17 09:50:00,71.3,64.1,29.83,SE,129,1.0,2.0,78,0.00,,,0.01,Wunderground v.1.15,2013-05-17 14:50:00,
2013-05-17 10:04:00,72.3,64.3,29.83,East,90,1.0,1.0,76,0.00,,,0.01,Wunderground v.1.15,2013-05-17 15:04:00,
2013-05-17 10:10:00,72.2,63.8,29.83,East,90,1.0,3.0,75,0.00,,,0.01,Wunderground v.1.15,2013-05-17 15:10:00,
2013-05-17 10:24:00,71.6,64.0,29.83,ESE,110,2.0,2.0,77,0.00,,,0.01,Wunderground v.1.15,2013-05-17 15:24:00,
2013-05-17 10:30:00,71.9,63.9,29.83,ENE,70,2.0,3.0,76,0.00,,,0.01,Wunderground v.1.15,2013-05-17 15:30:00,
2013-05-17 10:44:00,73.5,64.3,29.83,SE,132,1.0,1.0,73,0.00,,,0.01,Wunderground v.1.15,2013-05-17 15:44:00,
2013-05-17 10:50:00,73.7,64.9,29.83,East,90,2.0,5.0,74,0.00,,,0.01,Wunderground v.1.15,2013-05-17 15:50:00,
2013-05-17 11:04:00,74.4,65.2,29.83,SSE,161,2.0,2.0,73,0.00,,,0.01,Wunderground v.1.15,2013-05-17 16:04:00,
2013-05-17 11:10:00,73.3,64.5,29.83,ESE,111,3.0,9.0,74,0.00,,,0.01,Wunderground v.1.15,2013-05-17 16:10:00,
2013-05-17 11:24:00,75.1,65.5,29.83,East,82,1.0,1.0,72,0.00,,,0.01,Wunderground v.1.15,2013-05-17 16:24:00,
2013-05-17 11:30:00,75.1,65.5,29.83,ESE,113,2.0,3.0,72,0.00,,,0.01,Wunderground v.1.15,2013-05-17 16:30:00,
2013-05-17 11:44:00,76.1,65.6,29.83,ESE,111,2.0,2.0,70,0.00,,,0.01,Wunderground v.1.15,2013-05-17 16:44:00,
2013-05-17 11:50:00,76.2,65.7,29.83,South,171,2.0,3.0,70,0.00,,,0.01,Wunderground v.1.15,2013-05-17 16:50:00,
2013-05-17 12:04:00,74.4,65.2,29.83,SE,145,4.0,6.0,73,0.00,,,0.01,Wunderground v.1.15,2013-05-17 17:04:00,
2013-05-17 12:10:00,75.0,65.4,29.83,SSE,168,3.0,6.0,72,0.00,,,0.01,Wunderground v.1.15,2013-05-17 17:10:00,
2013-05-17 12:24:00,75.7,65.2,29.83,SE,134,2.0,4.0,70,0.00,,,0.01,Wunderground v.1.15,2013-05-17 17:24:00,
2013-05-17 12:30:00,75.8,65.3,29.83,SE,138,2.0,6.0,70,0.00,,,0.01,Wunderground v.1.15,2013-05-17 17:30:00,
2013-05-17 12:44:00,74.2,65.0,29.83,SSE,159,3.0,4.0,73,0.00,,,0.01,Wunderground v.1.15,2013-05-17 17:44:00,
2013-05-17 12:50:00,74.6,65.8,29.83,SE,127,3.0,6.0,74,0.00,,,0.01,Wunderground v.1.15,2013-05-17 17:50:00,
2013-05-17 13:04:00,75.1,65.5,29.83,SE,140,2.0,6.0,72,0.00,,,0.01,Wunderground v.1.15,2013-05-17 18:04:00,
2013-05-17 13:10:00,75.9,65.4,29.82,SE,141,2.0,6.0,70,0.00,,,0.01,Wunderground v.1.15,2013-05-17 18:10:00,
2013-05-17 13:24:00,76.4,65.9,29.83,SSE,155,3.0,5.0,70,0.00,,,0.01,Wunderground v.1.15,2013-05-17 18:24:00,
2013-05-17 13:30:00,76.7,66.2,29.82,SE,133,3.0,5.0,70,0.00,,,0.01,Wunderground v.1.15,2013-05-17 18:30:00,
2013-05-17 13:44:00,77.3,66.3,29.82,South,179,2.0,2.0,69,0.00,,,0.01,Wunderground v.1.15,2013-05-17 18:44:00,
2013-05-17 13:50:00,76.7,65.8,29.82,SE,130,3.0,7.0,69,0.00,,,0.01,Wunderground v.1.15,2013-05-17 18:50:00,
2013-05-17 14:04:00,77.0,66.5,29.82,SSE,157,3.0,4.0,70,0.00,,,0.01,Wunderground v.1.15,2013-05-17 19:04:00,
2013-05-17 14:10:00,77.3,66.7,29.82,SSE,159,2.0,4.0,70,0.00,,,0.01,Wunderground v.1.15,2013-05-17 19:10:00,
2013-05-17 14:24:00,77.9,66.5,29.81,South,178,2.0,5.0,68,0.00,,,0.01,Wunderground v.1.15,2013-05-17 19:24:00,
2013-05-17 14:30:00,77.3,66.3,29.81,SE,137,3.0,6.0,69,0.00,,,0.01,Wunderground v.1.15,2013-05-17 19:30:00,
2013-05-17 14:44:00,77.1,67.0,29.81,ESE,111,4.0,4.0,71,0.00,,,0.01,Wunderground v.1.15,2013-05-17 19:44:00,
2013-05-17 14:50:00,77.5,66.9,29.81,SE,138,3.0,6.0,70,0.00,,,0.01,Wunderground v.1.15,2013-05-17 19:50:00,
2013-05-17 15:04:00,78.7,67.2,29.81,South,171,2.0,5.0,68,0.00,,,0.01,Wunderground v.1.15,2013-05-17 20:04:00,
2013-05-17 15:10:00,78.4,67.4,29.80,ESE,111,3.0,5.0,69,0.00,,,0.01,Wunderground v.1.15,2013-05-17 20:10:00,
2013-05-17 15:24:00,79.1,67.6,29.80,SE,134,2.0,2.0,68,0.00,,,0.01,Wunderground v.1.15,2013-05-17 20:24:00,
2013-05-17 15:30:00,79.0,67.5,29.79,SE,138,3.0,4.0,68,0.00,,,0.01,Wunderground v.1.15,2013-05-17 20:30:00,
2013-05-17 15:44:00,80.5,68.1,29.79,SE,134,2.0,2.0,66,0.00,,,0.01,Wunderground v.1.15,2013-05-17 20:44:00,
2013-05-17 15:50:00,80.3,67.9,29.79,SE,132,2.0,3.0,66,0.00,,,0.01,Wunderground v.1.15,2013-05-17 20:50:00,
2013-05-17 16:04:00,79.5,67.6,29.79,SE,136,3.0,3.0,67,0.00,,,0.01,Wunderground v.1.15,2013-05-17 21:04:00,
2013-05-17 16:10:00,79.3,67.8,29.79,SSE,163,3.0,3.0,68,0.00,,,0.01,Wunderground v.1.15,2013-05-17 21:10:00,
2013-05-17 16:24:00,79.8,67.9,29.78,South,178,3.0,3.0,67,0.00,,,0.01,Wunderground v.1.15,2013-05-17 21:24:00,
2013-05-17 16:30:00,80.5,68.1,29.77,ESE,113,2.0,3.0,66,0.00,,,0.01,Wunderground v.1.15,2013-05-17 21:30:00,
2013-05-17 16:44:00,81.1,68.2,29.77,South,171,2.0,3.0,65,0.00,,,0.01,Wunderground v.1.15,2013-05-17 21:44:00,
2013-05-17 16:50:00,80.8,68.4,29.77,SSE,168,2.0,3.0,66,0.00,,,0.01,Wunderground v.1.15,2013-05-17 21:50:00,
2013-05-17 17:04:00,81.1,68.2,29.77,SE,146,3.0,5.0,65,0.00,,,0.01,Wunderground v.1.15,2013-05-17 22:04:00,
2013-05-17 17:10:00,81.1,68.2,29.77,SE,145,3.0,10.0,65,0.00,,,0.01,Wunderground v.1.15,2013-05-17 22:10:00,
2013-05-17 17:24:00,80.6,68.6,29.77,SSE,163,2.0,3.0,67,0.00,,,0.01,Wunderground v.1.15,2013-05-17 22:24:00,
2013-05-17 17:30:00,80.7,68.7,29.77,SE,137,2.0,4.0,67,0.00,,,0.01,Wunderground v.1.15,2013-05-17 22:30:00,
2013-05-17 17:44:00,80.5,68.5,29.77,SE,142,1.0,1.0,67,0.00,,,0.01,Wunderground v.1.15,2013-05-17 22:44:00,
2013-05-17 17:50:00,80.1,68.6,29.77,South,172,2.0,4.0,68,0.00,,,0.01,Wunderground v.1.15,2013-05-17 22:50:00,
2013-05-17 18:04:00,79.7,69.0,29.77,SSE,160,3.0,7.0,70,0.00,,,0.01,Wunderground v.1.15,2013-05-17 23:04:00,
2013-05-17 18:10:00,79.5,68.9,29.77,SE,143,3.0,7.0,70,0.00,,,0.01,Wunderground v.1.15,2013-05-17 23:10:00,
2013-05-17 18:24:00,79.3,69.1,29.76,SE,138,4.0,7.0,71,0.00,,,0.01,Wunderground v.1.15,2013-05-17 23:24:00,
2013-05-17 18:30:00,79.0,68.8,29.76,SSE,150,4.0,7.0,71,0.00,,,0.01,Wunderground v.1.15,2013-05-17 23:30:00,
2013-05-17 18:44:00,78.9,69.1,29.76,SE,146,3.0,3.0,72,0.00,,,0.01,Wunderground v.1.15,2013-05-17 23:44:00,
2013-05-17 18:50:00,79.0,69.2,29.76,SSE,157,3.0,4.0,72,0.00,,,0.01,Wunderground v.1.15,2013-05-17 23:50:00,
2013-05-17 19:04:00,78.7,69.3,29.76,SE,130,3.0,3.0,73,0.00,,,0.01,Wunderground v.1.15,2013-05-18 00:04:00,
2013-05-17 19:10:00,78.4,69.4,29.76,SSE,163,3.0,5.0,74,0.00,,,0.01,Wunderground v.1.15,2013-05-18 00:10:00,
2013-05-17 19:24:00,78.0,69.4,29.76,South,184,3.0,5.0,75,0.00,,,0.01,Wunderground v.1.15,2013-05-18 00:24:00,
2013-05-17 19:30:00,77.9,69.3,29.77,SSE,161,3.0,5.0,75,0.00,,,0.01,Wunderground v.1.15,2013-05-18 00:30:00,
2013-05-17 19:44:00,77.7,69.5,29.77,SSE,157,3.0,3.0,76,0.00,,,0.01,Wunderground v.1.15,2013-05-18 00:44:00,
2013-05-17 19:50:00,77.6,69.4,29.77,SSE,158,2.0,3.0,76,0.00,,,0.01,Wunderground v.1.15,2013-05-18 00:50:00,
2013-05-17 20:04:00,77.4,69.2,29.77,South,180,2.0,2.0,76,0.00,,,0.01,Wunderground v.1.15,2013-05-18 01:04:00,
2013-05-17 20:10:00,77.2,69.0,29.77,SE,133,3.0,7.0,76,0.00,,,0.01,Wunderground v.1.15,2013-05-18 01:10:00,
2013-05-17 20:24:00,76.9,69.1,29.77,SE,142,3.0,3.0,77,0.00,,,0.01,Wunderground v.1.15,2013-05-18 01:24:00,
2013-05-17 20:30:00,76.9,69.1,29.77,SSE,160,3.0,4.0,77,0.00,,,0.01,Wunderground v.1.15,2013-05-18 01:30:00,
2013-05-17 20:44:00,76.8,69.4,29.77,SSE,157,3.0,3.0,78,0.00,,,0.01,Wunderground v.1.15,2013-05-18 01:44:00,
2013-05-17 20:50:00,76.7,69.3,29.78,South,169,2.0,3.0,78,0.00,,,0.01,Wunderground v.1.15,2013-05-18 01:50:00,
2013-05-17 21:04:00,76.5,69.5,29.78,SSE,165,2.0,4.0,79,0.00,,,0.01,Wunderground v.1.15,2013-05-18 02:04:00,
2013-05-17 21:10:00,76.4,69.4,29.78,SSE,152,2.0,4.0,79,0.00,,,0.01,Wunderground v.1.15,2013-05-18 02:10:00,
2013-05-17 21:24:00,76.4,69.4,29.79,SSE,153,1.0,1.0,79,0.00,,,0.01,Wunderground v.1.15,2013-05-18 02:24:00,
2013-05-17 21:30:00,76.3,69.3,29.78,SSE,155,1.0,3.0,79,0.00,,,0.01,Wunderground v.1.15,2013-05-18 02:30:00,
2013-05-17 21:46:00,76.0,69.4,29.80,SSE,155,1.0,1.0,80,0.00,,,0.01,Wunderground v.1.15,2013-05-18 02:46:00,
2013-05-17 21:52:00,75.8,69.2,29.80,SSE,155,1.0,2.0,80,0.00,,,0.01,Wunderground v.1.15,2013-05-18 02:52:00,
2013-05-17 22:04:00,75.5,69.3,29.81,SSE,155,0.0,1.0,81,0.00,,,0.01,Wunderground v.1.15,2013-05-18 03:04:00,
2013-05-17 22:10:00,75.4,69.5,29.81,SSE,154,0.0,1.0,82,0.00,,,0.01,Wunderground v.1.15,2013-05-18 03:10:00,
2013-05-17 22:24:00,75.1,69.2,29.81,SSE,154,0.0,0.0,82,0.00,,,0.01,Wunderground v.1.15,2013-05-18 03:24:00,
2013-05-17 22:30:00,75.0,69.5,29.81,SSE,155,2.0,4.0,83,0.00,,,0.01,Wunderground v.1.15,2013-05-18 03:30:00,
2013-05-17 22:44:00,74.9,69.7,29.81,SE,139,1.0,1.0,84,0.00,,,0.01,Wunderground v.1.15,2013-05-18 03:44:00,
2013-05-17 22:50:00,74.8,69.6,29.81,SSE,159,2.0,3.0,84,0.00,,,0.01,Wunderground v.1.15,2013-05-18 03:50:00,
2013-05-17 23:04:00,74.6,69.4,29.80,SSE,165,1.0,2.0,84,0.00,,,0.01,Wunderground v.1.15,2013-05-18 04:04:00,
2013-05-17 23:06:00,74.5,69.3,29.80,SSE,165,1.0,2.0,84,0.00,,,0.01,Wunderground v.1.15,2013-05-18 04:06:00,
2013-05-17 23:08:00,74.4,69.2,29.80,SSE,165,1.0,2.0,84,0.00,,,0.01,Wunderground v.1.15,2013-05-18 04:08:00,
2013-05-17 23:24:00,74.2,69.4,29.80,SSE,165,1.0,1.0,85,0.00,,,0.01,Wunderground v.1.15,2013-05-18 04:24:00,
2013-05-17 23:26:00,74.2,69.4,29.80,SSE,165,1.0,2.0,85,0.00,,,0.01,Wunderground v.1.15,2013-05-18 04:26:00,
2013-05-17 23:32:00,74.0,69.5,29.80,SSE,165,1.0,2.0,86,0.00,,,0.01,Wunderground v.1.15,2013-05-18 04:32:00,
2013-05-17 23:44:00,73.8,69.3,29.79,SSE,165,1.0,1.0,86,0.00,,,0.01,Wunderground v.1.15,2013-05-18 04:44:00,
2013-05-17 23:50:00,73.7,69.2,29.79,SSE,156,2.0,4.0,86,0.00,,,0.01,Wunderground v.1.15,2013-05-18 04:50:00,